Flag for U.S.A. Weather past 2 weeks in Augusta, Maine, U.S.A.

Now
73 °F

Sunny.


Feels Like: 75 °F
Forecast: 57 / 78 °F
Wind: No wind

Location: Augusta State Airport

Current Time: Aug 1, 2014 at 12:09:35 PM

Latest Report: Aug 1, 2014 at 10:53 AM


Visibility: 10 mi

Pressure: 30.23 "Hg

Humidity: 71%

Dew point: 63 °F

Location of AugustaLocation

Historic Weather in Augusta — Graph

°F

Augusta temperature yesterday

Maximum temperature yesterday: 75 °F (at 12:53 PM)
Minimum temperature yesterday: 58 °F (at 5:53 AM)
Average temperature yesterday: 66 °F

Past Weeks' High & Low Weather Summary

 TemperatureHumidityPressure
High86 °F (Jul 23, 11:53 AM)100% (Jul 27, 6:53 AM)30.29 "Hg (Jul 27, 6:53 AM)
Low56 °F (Jul 21, 4:53 AM)40% (Jul 18, 5:53 PM)29.46 "Hg (Jul 28, 9:53 PM)
Average67 °F78%29.96 "Hg
* Reported Jul 17 10:53 AM — Aug 1 10:53 AM, Augusta, Weather by CustomWeather, © 2014

Note: Actual official high and low records may vary slightly from our data, if they occured in-between our weather recording intervals... More about our weather records

Advertising

Augusta weather history for previous 24 hours

 ConditionsComfort  
Time TempWeatherWind HumidityBarometerVisibility
10:53 AM
Aug 1
73 °FSunny.No wind71%30.23 "Hg10 mi
9:53 AM70 °FSunny.No wind81%30.22 "Hg10 mi
9:03 AM65 °FScattered clouds.No wind94%30.22 "Hg7 mi
8:53 AM64 °FFog.No wind97%30.22 "Hg6 mi
7:58 AM62 °FFog.No wind96%30.21 "Hg2 mi
6:53 AM60 °FFog.No wind100%30.19 "Hg0 mi
5:53 AM59 °FFog.No wind96%30.18 "Hg0 mi
5:04 AM59 °FLow clouds.No wind96%30.17 "Hg8 mi
4:53 AM59 °FLow clouds.No wind96%30.17 "Hg10 mi
3:57 AM58 °FFog.No wind100%30.16 "Hg3 mi
2:53 AM61 °FClear.No wind93%30.15 "Hg7 mi
1:53 AM60 °FClear.3 mph96%30.15 "Hg7 mi
12:53 AM61 °FClear.No wind97%30.16 "Hg8 mi
11:53 PM
Jul 31
61 °FClear.3 mph97%30.15 "Hg10 mi
10:53 PM63 °FClear.No wind90%30.14 "Hg10 mi
9:53 PM64 °FClear.3 mph87%30.14 "Hg10 mi
8:53 PM66 °FSunny.5 mph81%30.13 "Hg10 mi
7:53 PM68 °FLight rain. Partly sunny.8 mph76%30.12 "Hg10 mi
6:53 PM70 °FPassing clouds.10 mph71%30.11 "Hg10 mi
5:53 PM71 °FScattered clouds.7 mph66%30.09 "Hg10 mi
4:53 PM73 °FScattered clouds.13 mph59%30.09 "Hg10 mi
3:53 PM73 °FPartly sunny.12 mph55%30.09 "Hg10 mi
2:53 PM75 °FSunny.16 mph54%30.09 "Hg10 mi
1:53 PM74 °FPassing clouds.8 mph53%30.09 "Hg10 mi
12:53 PM75 °FSunny.7 mph58%30.09 "Hg10 mi
Weather by CustomWeather, © 2014

See weather overviewHow to use our weather pages